Flag for Germany Weather past 2 weeks in Friedrichshafen, Baden-Württemberg, Germany

Now
63 °F

Mostly cloudy.


Feels Like: 63 °F
Forecast: 57 / 78 °F
Wind: No wind

Location: Friedrichshafen Airport

Current Time: Jul 31, 2014 at 8:24:49 AM

Latest Report: Jul 31, 2014 at 7:50 AM


Visibility: 5 mi

Pressure: 30.01 "Hg

Humidity: 88%

Dew point: 59 °F

Location of FriedrichshafenLocation

Historic Weather in Friedrichshafen — Graph

°F

Friedrichshafen temperature yesterday

Maximum temperature yesterday: 64 °F (at 12:20 AM)
Minimum temperature yesterday: 61 °F (at 4:55 AM)
Average temperature yesterday: 63 °F

Past Weeks' High & Low Weather Summary

 TemperatureHumidityPressure
High91 °F (Jul 19, 4:50 PM)94% (Jul 22, 4:55 AM)30.21 "Hg (Jul 22, 4:55 AM)
Low52 °F (Jul 25, 5:50 AM)24% (Jul 19, 4:50 PM)29.77 "Hg (Jul 28, 4:50 PM)
Average67 °F70%29.97 "Hg
* Reported Jul 16 7:20 AM — Jul 31 7:20 AM, Friedrichshafen, Weather by CustomWeather, © 2014

Note: Actual official high and low records may vary slightly from our data, if they occured in-between our weather recording intervals... More about our weather records

Advertising

Friedrichshafen weather history for previous 24 hours

 ConditionsComfort  
Time TempWeatherWind HumidityBarometerVisibility
7:20 AM
Jul 31
61 °FOvercast.No wind94%30.01 "Hg5 mi
6:50 AM61 °FOvercast.2 mph88%30.01 "Hg5 mi
6:20 AM61 °FOvercast.No wind94%30.01 "Hg4 mi
5:50 AM61 °FFog.2 mph94%30.01 "Hg1 mi
5:20 AM63 °FFog.1 mph88%30.01 "Hg2 mi
4:50 AM63 °FFog.1 mph88%29.98 "Hg3 mi
4:20 AM63 °FFog.No wind88%29.98 "Hg2 mi
3:55 AM63 °FMild.No wind88%29.98 "Hg3 mi
3:20 AM63 °FMostly cloudy.No wind88%29.98 "Hg5 mi
2:50 AM63 °FMostly cloudy.2 mph88%29.98 "HgN/A
2:20 AM63 °FMostly cloudy.2 mph88%29.98 "HgN/A
1:50 AM63 °FOvercast.2 mph88%29.98 "HgN/A
1:20 AM63 °FMostly cloudy.2 mph88%29.95 "Hg5 mi
12:50 AM63 °FDrizzle. Mostly cloudy.1 mph94%29.95 "Hg5 mi
12:20 AM63 °FSprinkles. Fog.2 mph88%29.95 "Hg2 mi
11:58 PM
Jul 30
63 °FSprinkles. Overcast.1 mph88%29.95 "HgN/A
11:50 PM63 °FMild.2 mph88%29.95 "Hg5 mi
11:20 PM64 °FMostly cloudy.2 mph88%29.95 "HgN/A
10:50 PM64 °FMostly cloudy.3 mph88%29.95 "HgN/A
10:20 PM64 °FOvercast.3 mph88%29.95 "HgN/A
9:50 PM64 °FMostly cloudy.3 mph88%29.92 "HgN/A
9:20 PM64 °FMostly cloudy.3 mph88%29.92 "HgN/A
8:50 PM64 °FSprinkles. Cloudy.3 mph88%29.92 "Hg4 mi
8:20 PM63 °FSprinkles. Mostly cloudy.3 mph94%29.92 "HgN/A
7:50 PM63 °FHeavy rain. Low clouds.5 mph88%29.89 "Hg2 mi
7:20 PM64 °FLow clouds.8 mph83%29.89 "HgN/A
6:50 PM64 °FLow clouds.8 mph83%29.89 "HgN/A
6:20 PM63 °FMostly cloudy.10 mph88%29.89 "HgN/A
5:50 PM63 °FLight rain. Low clouds.10 mph88%29.89 "HgN/A
5:20 PM63 °FLight rain. Mostly cloudy.9 mph88%29.89 "Hg4 mi
4:50 PM63 °FRain. Mostly cloudy.8 mph88%29.89 "Hg2 mi
4:20 PM63 °FLight rain. Mostly cloudy.6 mph88%29.89 "Hg2 mi
3:50 PM64 °FOvercast.8 mph78%29.89 "HgN/A
3:20 PM64 °FOvercast.8 mph78%29.89 "HgN/A
2:50 PM64 °FMore clouds than sun.10 mph78%29.89 "HgN/A
2:20 PM63 °FMore clouds than sun.10 mph83%29.89 "HgN/A
1:50 PM63 °FSprinkles. Cloudy.10 mph83%29.89 "HgN/A
1:20 PM63 °FLight rain. Cloudy.7 mph83%29.86 "Hg4 mi
12:50 PM63 °FDrizzle. Fog.8 mph83%29.86 "Hg2 mi
12:20 PM63 °FMore clouds than sun.9 mph77%29.86 "HgN/A
11:50 AM63 °FMore clouds than sun.7 mph77%29.86 "HgN/A
11:20 AM63 °FMostly cloudy.9 mph77%29.86 "HgN/A
10:50 AM63 °FOvercast.8 mph77%29.86 "HgN/A
10:20 AM63 °FMostly cloudy.9 mph77%29.86 "HgN/A
9:50 AM63 °FMostly cloudy.8 mph77%29.83 "HgN/A
9:20 AM63 °FOvercast.9 mph77%29.83 "HgN/A
8:50 AM61 °FSprinkles. Low clouds.10 mph83%29.83 "HgN/A
8:20 AM61 °FDrizzle. Fog.8 mph88%29.83 "Hg3 mi
Weather by CustomWeather, © 2014

See weather overviewHow to use our weather pages